Location: Scenic
(43.7797°N, 102.5549°W)
Time: 07:43:54
(UTC-07:00)

OTV 5 (USA 277) - Visible Passes

Search period start: 21 January 2018 00:00
Search period end: 31 January 2018 00:00
Orbit: 404 x 417 km, 43.0° (Epoch: 07 September)

Date Brightness Start Highest point End Pass type
(mag) Time Alt. Az. Time Alt. Az. Time Alt. Az.
21 Jan ? 19:05:45 10° SSW 19:06:10 12° SSW 19:06:10 12° SSW visible
22 Jan ? 18:15:24 10° S 18:17:30 16° SSE 18:17:44 16° SE visible
23 Jan ? 17:25:47 10° SSE 17:26:37 11° SE 17:27:28 10° SE visible
23 Jan ? 19:00:11 10° SW 19:02:01 26° SSW 19:02:01 26° SSW visible
24 Jan ? 18:09:23 10° SW 18:12:23 30° SSE 18:13:29 24° ESE visible
24 Jan ? 19:46:07 10° WSW 19:46:14 11° WSW 19:46:14 11° WSW visible
25 Jan ? 17:18:45 10° SSW 17:21:26 22° SSE 17:24:07 10° E visible
25 Jan ? 18:55:05 10° WSW 18:57:40 46° SW 18:57:40 46° SW visible
26 Jan ? 18:04:06 10° WSW 18:07:23 52° SSE 18:09:03 25° E visible
26 Jan ? 19:41:15 10° W 19:41:49 14° W 19:41:49 14° W visible
27 Jan ? 18:50:11 10° W 18:53:11 67° WSW 18:53:11 67° WSW visible
28 Jan ? 17:59:08 10° WSW 18:02:30 74° S 18:04:34 21° E visible
28 Jan ? 19:36:26 10° W 19:37:20 17° W 19:37:20 17° W visible
29 Jan ? 18:45:21 10° W 18:48:43 75° S 18:48:43 75° S visible
30 Jan ? 17:54:16 10° W 17:57:39 80° S 18:00:09 17° E visible
30 Jan ? 19:31:37 10° W 19:32:55 20° W 19:32:55 20° W visible
